Weather History for Bedford, MA

Change the Weather History Date:

Friday, February 8, 2013

  Actual Average Record
Temperature  
Mean Temperature 24 °F -  
Max Temperature 32 °F 34 °F 54 °F (1965)
Min Temperature 17 °F 15 °F -15 °F (1967)
Degree Days  
Heating Degree Days 40    
Moisture  
Dew Point 22 °F    
Average Humidity 92    
Maximum Humidity 100    
Minimum Humidity 44    
Precipitation  
Precipitation 0.30 in - - ()
Sea Level Pressure  
Sea Level Pressure 30.06 in    
Wind  
Wind Speed 9 mph (NNE)    
Max Wind Speed 23 mph    
Max Gust Speed 75 mph    
Visibility 3 miles    
Events Fog , Snow    
Averages and records for this station are not official NWS values.
T = Trace of Precipitation, MM = Missing Value Source: NWS Daily Summary

Daily Weather History Graph

Daily Weather History Graph

Search for Another Location

Airport:

Trip Planner

Search our weather history database for the weather conditions in past years. The results will help you decide how hot, cold, wet, or windy it might be!

Date:

Astronomy

Feb. 08, 2013 Rise Set
Actual Time 6:50 AM EST 5:08 PM EST
Civil Twilight 6:21 AM EST 5:37 PM EST
Nautical Twilight 5:48 AM EST 6:11 PM EST
Astronomical Twilight 5:15 AM EST 6:43 PM EST
Moon 5:18 AM EST (2/8) 3:37 PM EST (2/8)
Length of Visible Light 11h 16m
Length of Day
10h 17m
Waning Crescent, 3% of the Moon is Illuminated
Feb 8
Waning Crescent
Feb 10
New
Feb 17
First Quarter
Feb 25
Full
Mar 4
Last Quarter

Hourly Weather History & Observations

Time (EST) Temp. Windchill Dew Point Humidity Pressure Visibility Wind Dir Wind Speed Gust Speed Precip Events Conditions
12:56 AM 24.1 °F - 5.0 °F 44% 30.51 in 10.0 mi Calm Calm - N/A   Scattered Clouds
1:56 AM 21.9 °F - 8.1 °F 55% 30.49 in 10.0 mi Calm Calm - N/A   Mostly Cloudy
2:31 AM 23.0 °F 17.0 °F 12.2 °F 63% 30.41 in 10.0 mi NE 4.6 mph - N/A   Scattered Clouds
2:56 AM 23.0 °F 15.8 °F 15.1 °F 72% 30.45 in 10.0 mi NE 5.8 mph - N/A   Clear
3:56 AM 24.1 °F 19.7 °F 21.0 °F 88% 30.42 in 10.0 mi NE 3.5 mph - N/A   Overcast
4:56 AM 25.0 °F 19.3 °F 23.0 °F 92% 30.40 in 10.0 mi NE 4.6 mph - N/A   Overcast
5:56 AM 26.1 °F 21.9 °F 25.0 °F 96% 30.39 in 8.0 mi NNE 3.5 mph - 0.00 in   Overcast
6:06 AM 26.6 °F 21.2 °F 24.8 °F 93% 30.34 in 10.0 mi North 4.6 mph - 0.00 in Snow Light Snow
6:22 AM 26.6 °F 20.0 °F 24.8 °F 93% 30.34 in 9.0 mi NNW 5.8 mph - N/A Snow Light Snow
6:35 AM 24.8 °F 16.1 °F 23.0 °F 93% 30.33 in 9.0 mi North 8.1 mph - 0.00 in Snow Light Snow
6:56 AM 25.0 °F 17.1 °F 21.9 °F 88% 30.38 in 10.0 mi NNW 6.9 mph - 0.00 in   Overcast
7:56 AM 30.9 °F 22.2 °F 25.0 °F 79% 30.36 in 10.0 mi East 10.4 mph - N/A   Overcast
8:56 AM 30.9 °F 21.7 °F 25.0 °F 79% 30.34 in 10.0 mi East 11.5 mph - N/A   Overcast
9:50 AM 32.0 °F 22.5 °F 26.6 °F 80% 30.27 in 8.0 mi ENE 12.7 mph - 0.00 in Snow Light Snow
9:56 AM 32.0 °F 23.6 °F 27.0 °F 82% 30.32 in 6.0 mi East 10.4 mph - 0.00 in Snow Light Snow
10:05 AM 32.0 °F 23.0 °F 28.4 °F 87% 30.27 in 2.0 mi East 11.5 mph - 0.00 in Snow Light Snow
10:20 AM 30.2 °F 20.2 °F 30.2 °F 100% 30.26 in 0.8 mi East 12.7 mph - 0.00 in Snow Light Snow
10:26 AM 30.2 °F 20.8 °F 30.2 °F 100% 30.26 in 0.8 mi East 11.5 mph - 0.00 in Snow Light Snow
10:56 AM 30.9 °F 21.2 °F 30.9 °F 100% 30.29 in 0.8 mi ENE 12.7 mph - 0.01 in Snow Light Snow
11:32 AM 28.4 °F 19.7 °F 28.4 °F 100% 30.21 in 0.5 mi North 9.2 mph - 0.01 in Fog , Snow Light Snow
11:56 AM 25.0 °F 15.5 °F 24.1 °F 96% 30.23 in 0.5 mi North 9.2 mph - 0.01 in Fog , Snow Light Snow
12:03 PM 24.8 °F 14.6 °F 24.8 °F 100% 30.18 in 0.8 mi North 10.4 mph - 0.00 in Snow Light Snow
12:44 PM 24.8 °F 16.9 °F 24.8 °F 100% 30.14 in 0.2 mi North 6.9 mph - 0.02 in Fog , Snow Snow
12:54 PM 24.8 °F 13.4 °F 24.8 °F 100% 30.13 in 0.5 mi NNE 12.7 mph - 0.02 in Fog , Snow Snow
12:56 PM 24.1 °F 12.5 °F 24.1 °F 100% 30.19 in 0.5 mi NNE 12.7 mph - 0.02 in Fog , Snow Snow
1:56 PM 23.0 °F 10.6 °F 21.9 °F 96% 30.15 in 0.2 mi North 13.8 mph - 0.02 in Fog , Snow Snow
2:43 PM 23.0 °F 11.1 °F 21.2 °F 93% 30.05 in 0.5 mi North 12.7 mph - 0.01 in Fog , Snow Snow
2:51 PM 23.0 °F 12.4 °F 21.2 °F 93% 30.05 in 0.5 mi North 10.4 mph - 0.01 in Fog , Snow Snow
2:56 PM 23.0 °F 12.4 °F 21.9 °F 96% 30.11 in 0.5 mi North 10.4 mph - 0.01 in Fog , Snow Snow
3:28 PM 24.8 °F 14.0 °F 23.0 °F 93% 30.02 in 0.2 mi North 11.5 mph - 0.02 in Fog , Snow Snow
3:56 PM 28.9 °F 15.8 °F 28.9 °F 100% 30.04 in 0.5 mi NE 20.7 mph 26.5 mph 0.03 in Fog , Snow Snow
4:56 PM 30.0 °F 19.5 °F 30.0 °F 100% 29.98 in 0.5 mi NE 13.8 mph 25.3 mph 0.02 in Fog , Snow Snow
5:56 PM 30.0 °F 17.2 °F 28.9 °F 96% 29.95 in 0.5 mi NE 20.7 mph 26.5 mph 0.03 in Fog , Snow Snow
6:53 PM 24.8 °F 12.4 °F 23.0 °F 93% 29.86 in 0.5 mi North 15.0 mph 25.3 mph 0.04 in Fog , Snow Snow
6:56 PM 23.0 °F 9.6 °F 21.9 °F 96% 29.91 in 0.5 mi North 16.1 mph 25.3 mph 0.04 in Fog , Snow Snow
7:05 PM 21.2 °F 7.8 °F 21.2 °F 100% 29.85 in 0.2 mi North 15.0 mph - 0.01 in Fog , Snow Heavy Snow
7:47 PM 21.2 °F 5.6 °F 21.2 °F 100% 29.81 in 0.2 mi NNE 20.7 mph 27.6 mph 0.03 in Fog Light Freezing Fog
7:56 PM 21.0 °F 5.0 °F 21.0 °F 100% 29.86 in 0.2 mi NNE 21.9 mph 32.2 mph 0.04 in Fog Light Freezing Fog
8:11 PM 21.2 °F 6.0 °F 21.2 °F 100% 29.79 in 0.2 mi North 19.6 mph 29.9 mph 0.01 in Fog Light Freezing Fog
8:21 PM 19.4 °F 3.2 °F 19.4 °F 100% 29.78 in 0.2 mi North 20.7 mph 32.2 mph 0.01 in Fog Light Freezing Fog
8:31 PM 19.4 °F 3.6 °F 19.4 °F 100% 29.78 in 0.2 mi North 19.6 mph 29.9 mph 0.02 in Fog Light Freezing Fog
8:56 PM 19.9 °F 3.9 °F 19.0 °F 96% 29.82 in 0.2 mi North 20.7 mph 63.3 mph 0.03 in Fog Light Freezing Fog
9:14 PM 19.4 °F 4.1 °F 19.4 °F 100% 29.75 in 0.2 mi North 18.4 mph 74.8 mph 0.01 in Fog Light Freezing Fog
9:25 PM 19.4 °F 3.6 °F 17.6 °F 93% 29.73 in 0.2 mi North 19.6 mph 40.3 mph 0.02 in Fog Light Freezing Fog
9:34 PM 19.4 °F 5.0 °F 17.6 °F 93% 29.74 in 0.5 mi North 16.1 mph 51.8 mph 0.02 in Fog Light Freezing Fog
9:56 PM 19.0 °F 2.4 °F 17.1 °F 92% 29.78 in 0.5 mi North 21.9 mph 31.1 mph 0.02 in Fog Light Freezing Fog
10:11 PM 17.6 °F 0.5 °F 17.6 °F 100% 29.68 in 0.5 mi NNE 21.9 mph 34.5 mph N/A Fog Light Freezing Fog
10:44 PM 17.6 °F 0.9 °F 15.8 °F 93% 29.68 in 0.5 mi North 20.7 mph 31.1 mph 0.01 in Fog Light Freezing Fog
10:56 PM 17.1 °F 1.0 °F 17.1 °F 100% 29.71 in 0.5 mi North 18.4 mph 34.5 mph 0.01 in Fog Light Freezing Fog
11:10 PM 17.6 °F 0.1 °F 15.8 °F 93% 29.64 in 0.5 mi NNE 23.0 mph 35.7 mph N/A Fog Light Freezing Fog
11:37 PM 17.6 °F 0.5 °F 17.6 °F 100% 29.63 in 0.2 mi North 21.9 mph 33.4 mph 0.01 in Fog Light Freezing Fog
11:46 PM 17.6 °F 3.2 °F 15.8 °F 93% 29.63 in 0.2 mi North 15.0 mph 35.7 mph 0.01 in Fog Light Freezing Fog
11:56 PM 17.1 °F 1.5 °F 16.0 °F 96% 29.67 in 0.2 mi North 17.3 mph 39.1 mph 0.01 in Fog Light Freezing Fog